Home > Weather > Sikar > Past weeks

Flag for India Past Weather in Sikar, Rajasthan, India — Yesterday and Last 2 Weeks

Now
84 °F

Passing clouds.


Feels Like: 92 °F
Forecast: 89 / 99 °F
Wind: No wind

Location: Jaipur / Sanganer

Current Time: Jul 24, 2016 at 6:41:23 AM

Latest Report: Jul 24, 2016 at 6:00 AM


Visibility: 3 mi

Pressure: 29.68 "Hg

Humidity: 74%

Dew Point: 75 °F

Location of SikarLocation

Past Weather in Sikar — Graph

°F

Sikar Temperature Yesterday

Maximum temperature yesterday: 97 °F (at 1:30 PM)
Minimum temperature yesterday: 84 °F (at 5:00 AM)
Average temperature yesterday: 89 °F

High & Low Weather Summary for the Past Weeks

 TemperatureHumidityPressure
High99 °F (Jul 9, 2:30 PM)100% (Jul 15, 11:00 AM)29.71 "Hg (Jul 15, 11:00 AM)
Low75 °F (Jul 16, 2:00 PM)39% (Jul 23, 2:00 PM)29.42 "Hg (Jul 9, 4:00 PM)
Average86 °F74%29.59 "Hg
* Reported Jul 9 5:30 AM — Jul 24 5:30 AM, Sikar, Weather by CustomWeather, © 2016

Note: Actual official high and low records may vary slightly from our data, if they occured in-between our weather recording intervals... More about our weather records

Advertising

Sikar Weather History for the Previous 24 Hours

Scroll right to see more
 ConditionsComfort  
Time TempWeatherWind HumidityBarometerVisibility
5:30 AM
Sun, Jul 24
84 °FPassing clouds.1 mph74%29.68 "Hg3 mi
5:00 AM84 °FPassing clouds.No wind74%29.68 "Hg3 mi
4:00 AM84 °FPassing clouds.3 mph79%29.68 "Hg3 mi
3:00 AM84 °FPassing clouds.3 mph79%29.68 "Hg3 mi
2:30 AM84 °FPassing clouds.1 mph79%29.68 "Hg3 mi
2:00 AM84 °FPassing clouds.5 mph79%29.65 "Hg3 mi
12:00 AM84 °FPassing clouds.6 mph74%29.68 "Hg3 mi
11:30 PM
Sat, Jul 23
84 °FPassing clouds.6 mph74%29.68 "Hg3 mi
11:00 PM84 °FPassing clouds.7 mph74%29.68 "Hg3 mi
10:30 PM86 °FPassing clouds.9 mph70%29.68 "Hg3 mi
10:00 PM86 °FPassing clouds.7 mph66%N/A3 mi
9:30 PM86 °FPassing clouds.10 mph66%29.65 "Hg3 mi
9:00 PM86 °FPassing clouds.9 mph66%29.65 "Hg3 mi
7:30 PM88 °FPartly sunny.10 mph59%29.65 "Hg4 mi
7:00 PM88 °FThunderstorms. Cloudy.5 mph62%29.62 "HgN/A
6:30 PM88 °FBroken clouds.13 mph62%29.59 "Hg4 mi
6:00 PM90 °FScattered clouds.14 mph55%29.59 "Hg4 mi
5:30 PM90 °FBroken clouds.12 mph59%29.59 "Hg4 mi
5:00 PM90 °FBroken clouds.16 mph55%29.59 "Hg4 mi
4:30 PM95 °FBroken clouds.9 mph47%29.56 "Hg4 mi
4:00 PM95 °FBroken clouds.8 mph47%29.56 "Hg4 mi
3:30 PM95 °FBroken clouds.9 mph47%29.59 "Hg4 mi
2:30 PM97 °FBroken clouds.7 mph42%29.59 "Hg4 mi
2:00 PM97 °FScattered clouds.6 mph39%29.62 "Hg4 mi
1:30 PM97 °FScattered clouds.6 mph42%29.62 "Hg4 mi
1:00 PM95 °FScattered clouds.3 mph44%29.62 "Hg4 mi
12:00 PM93 °FScattered clouds.5 mph47%29.65 "Hg4 mi
11:30 AM93 °FScattered clouds.5 mph49%29.65 "Hg4 mi
11:00 AM91 °FPassing clouds.7 mph49%29.65 "Hg4 mi
10:00 AM90 °FPassing clouds.9 mph52%29.68 "Hg4 mi
9:00 AM88 °FPassing clouds.8 mph55%29.65 "Hg4 mi
8:30 AM88 °FHaze.8 mph59%29.65 "Hg3 mi
7:30 AM86 °FScattered clouds.7 mph62%29.65 "Hg3 mi
7:00 AM86 °FScattered clouds.2 mph70%29.62 "Hg3 mi
6:30 AM84 °FScattered clouds.1 mph74%29.62 "Hg3 mi
6:00 AM84 °FPassing clouds.No wind74%29.62 "Hg3 mi
Weather by CustomWeather, © 2016

See weather overviewHow to use our weather pages